ALK101 VCBI-VRMM

Flight info

Callsign ALK101
Flight time 1h 6m
Altitude 38000
Route LALU1D/22 LALUM1D TELIG M512 HOKEY HOKEY1A
Aircraft A339/H-SADE1E2E3GHIJ3J5M1P2RWXY/LB2D1

Departure

Time 2026-04-29 08:31
Airport Bandaranaike International Colombo Airport (VCBI)

Arrival

Time 2026-04-29 09:37
Airport Velana International Airport (VRMM)
Time Latitude Longitude Altitude Speed Heading
2026-04-29 07:40 7.17697 79.88481 43 ft 0 kts 217°
2026-04-29 08:18 7.17710 79.88491 44 ft 3 kts 215°
2026-04-29 08:18 7.17727 79.88503 42 ft 3 kts 213°
2026-04-29 08:19 7.17744 79.88514 41 ft 3 kts 219°
2026-04-29 08:19 7.17759 79.88525 39 ft 3 kts 237°
2026-04-29 08:19 7.17768 79.88539 43 ft 3 kts 255°
2026-04-29 08:19 7.17774 79.88553 43 ft 3 kts 291°
2026-04-29 08:20 7.17766 79.88568 41 ft 3 kts 313°
2026-04-29 08:20 7.17755 79.88580 41 ft 0 kts 307°
2026-04-29 08:23 7.17759 79.88574 44 ft 3 kts 307°
2026-04-29 08:23 7.17775 79.88553 43 ft 5 kts 307°
2026-04-29 08:24 7.17798 79.88523 44 ft 6 kts 307°
2026-04-29 08:24 7.17828 79.88483 44 ft 8 kts 307°
2026-04-29 08:24 7.17861 79.88439 44 ft 7 kts 308°
2026-04-29 08:24 7.17896 79.88441 44 ft 5 kts 19°
2026-04-29 08:25 7.17931 79.88463 44 ft 7 kts 33°
2026-04-29 08:25 7.17974 79.88495 44 ft 9 kts 37°
2026-04-29 08:25 7.18027 79.88536 39 ft 11 kts 37°
2026-04-29 08:25 7.18092 79.88586 44 ft 13 kts 38°
2026-04-29 08:26 7.18167 79.88643 44 ft 14 kts 37°
2026-04-29 08:26 7.18251 79.88708 44 ft 16 kts 37°
2026-04-29 08:26 7.18344 79.88780 44 ft 18 kts 37°
2026-04-29 08:26 7.18447 79.88859 44 ft 19 kts 37°
2026-04-29 08:27 7.18556 79.88943 45 ft 20 kts 37°
2026-04-29 08:27 7.18671 79.89032 44 ft 22 kts 37°
2026-04-29 08:27 7.18795 79.89126 45 ft 23 kts 37°
2026-04-29 08:27 7.18924 79.89227 44 ft 24 kts 37°
2026-04-29 08:28 7.19055 79.89327 43 ft 20 kts 37°
2026-04-29 08:28 7.19136 79.89389 44 ft 12 kts 37°
2026-04-29 08:28 7.19212 79.89411 44 ft 10 kts 342°
2026-04-29 08:28 7.19247 79.89377 42 ft 6 kts 310°
2026-04-29 08:29 7.19277 79.89337 43 ft 8 kts 306°
2026-04-29 08:29 7.19296 79.89302 44 ft 5 kts 288°
2026-04-29 08:29 7.19282 79.89280 44 ft 4 kts 237°
2026-04-29 08:29 7.19265 79.89262 44 ft 4 kts 227°
2026-04-29 08:30 7.19252 79.89251 44 ft 0 kts 219°
2026-04-29 08:30 7.18860 79.88948 46 ft 106 kts 218°
2026-04-29 08:30 7.18069 79.88341 104 ft 172 kts 218°
2026-04-29 08:31 7.17110 79.87608 989 ft 173 kts 217°
2026-04-29 08:31 7.16160 79.86861 2081 ft 178 kts 217°
2026-04-29 08:31 7.15154 79.86058 2697 ft 195 kts 217°
2026-04-29 08:31 7.14015 79.85182 3159 ft 216 kts 216°
2026-04-29 08:32 7.12757 79.84226 3605 ft 235 kts 215°
2026-04-29 08:32 7.11393 79.83197 3968 ft 255 kts 215°
2026-04-29 08:32 7.09948 79.82095 4477 ft 264 kts 216°
2026-04-29 08:32 7.08473 79.80964 5083 ft 268 kts 216°
2026-04-29 08:33 7.07002 79.79835 5693 ft 271 kts 216°
2026-04-29 08:33 7.05497 79.78677 6340 ft 273 kts 216°
2026-04-29 08:33 7.03974 79.77506 6889 ft 278 kts 216°
2026-04-29 08:33 7.02423 79.76315 7487 ft 281 kts 216°
2026-04-29 08:34 7.00854 79.75108 8079 ft 285 kts 216°
2026-04-29 08:34 6.99267 79.73889 8679 ft 288 kts 216°
2026-04-29 08:34 6.97662 79.72658 9281 ft 292 kts 216°
2026-04-29 08:34 6.96035 79.71410 9848 ft 296 kts 216°
2026-04-29 08:35 6.94400 79.70156 10243 ft 306 kts 216°
2026-04-29 08:35 6.92650 79.68817 10410 ft 325 kts 216°
2026-04-29 08:35 6.90806 79.67405 10556 ft 342 kts 216°
2026-04-29 08:35 6.88883 79.65931 10892 ft 351 kts 216°
2026-04-29 08:36 6.87033 79.64310 11351 ft 356 kts 227°
2026-04-29 08:36 6.85508 79.62316 11852 ft 361 kts 233°
2026-04-29 08:36 6.84088 79.60247 12363 ft 364 kts 234°
2026-04-29 08:36 6.82615 79.58151 12844 ft 368 kts 233°
2026-04-29 08:37 6.81082 79.56076 13351 ft 371 kts 231°
2026-04-29 08:37 6.79501 79.54016 13833 ft 374 kts 231°
2026-04-29 08:37 6.77884 79.51948 14308 ft 376 kts 230°
2026-04-29 08:37 6.76255 79.49880 14781 ft 378 kts 230°
2026-04-29 08:38 6.74617 79.47805 15248 ft 380 kts 230°
2026-04-29 08:38 6.72969 79.45716 15706 ft 382 kts 230°
2026-04-29 08:38 6.71308 79.43609 16154 ft 385 kts 230°
2026-04-29 08:38 6.69659 79.41516 16588 ft 387 kts 230°
2026-04-29 08:39 6.67985 79.39389 17046 ft 389 kts 230°
2026-04-29 08:39 6.66296 79.37245 17478 ft 391 kts 230°
2026-04-29 08:39 6.64594 79.35084 17929 ft 394 kts 230°
2026-04-29 08:39 6.62882 79.32910 18338 ft 396 kts 230°
2026-04-29 08:40 6.61190 79.30762 18712 ft 398 kts 230°
2026-04-29 08:40 6.59459 79.28566 19082 ft 401 kts 230°
2026-04-29 08:40 6.57724 79.26364 19454 ft 403 kts 230°
2026-04-29 08:40 6.55972 79.24141 19839 ft 406 kts 230°
2026-04-29 08:41 6.54213 79.21909 20218 ft 408 kts 230°
2026-04-29 08:41 6.52444 79.19665 20597 ft 411 kts 230°
2026-04-29 08:41 6.50664 79.17406 20982 ft 413 kts 230°
2026-04-29 08:41 6.48868 79.15128 21362 ft 416 kts 230°
2026-04-29 08:42 6.47064 79.12841 21741 ft 419 kts 230°
2026-04-29 08:42 6.45250 79.10540 22124 ft 421 kts 230°
2026-04-29 08:42 6.43444 79.08250 22488 ft 424 kts 230°
2026-04-29 08:42 6.41601 79.05914 22919 ft 426 kts 230°
2026-04-29 08:43 6.39750 79.03569 23290 ft 430 kts 230°
2026-04-29 08:43 6.37886 79.01207 23631 ft 432 kts 230°
2026-04-29 08:43 6.36012 78.98832 23972 ft 434 kts 230°
2026-04-29 08:43 6.34133 78.96450 24309 ft 436 kts 230°
2026-04-29 08:44 6.32245 78.94058 24652 ft 438 kts 230°
2026-04-29 08:44 6.30345 78.91651 24988 ft 439 kts 230°
2026-04-29 08:44 6.28573 78.89141 25303 ft 443 kts 237°
2026-04-29 08:44 6.27111 78.86399 25628 ft 446 kts 244°
2026-04-29 08:45 6.25827 78.83547 25952 ft 448 kts 244°
2026-04-29 08:45 6.24525 78.80691 26276 ft 450 kts 244°
2026-04-29 08:45 6.23224 78.77860 26603 ft 452 kts 244°
2026-04-29 08:45 6.21897 78.74983 26922 ft 454 kts 244°
2026-04-29 08:46 6.20565 78.72098 27235 ft 456 kts 244°
2026-04-29 08:46 6.19225 78.69196 27558 ft 458 kts 244°
2026-04-29 08:46 6.17878 78.66276 27859 ft 460 kts 244°
2026-04-29 08:46 6.16531 78.63357 28154 ft 462 kts 244°
2026-04-29 08:47 6.15173 78.60416 28467 ft 464 kts 244°
2026-04-29 08:47 6.13657 78.57552 28753 ft 465 kts 237°
2026-04-29 08:47 6.11839 78.54917 29044 ft 466 kts 230°
2026-04-29 08:47 6.09799 78.52385 29334 ft 467 kts 229°
2026-04-29 08:48 6.07734 78.49804 29632 ft 469 kts 230°
2026-04-29 08:48 6.05714 78.47264 29914 ft 472 kts 230°
2026-04-29 08:48 6.03648 78.44659 30189 ft 473 kts 230°
2026-04-29 08:48 6.01593 78.42067 30472 ft 475 kts 230°
2026-04-29 08:49 5.99528 78.39463 30746 ft 477 kts 230°
2026-04-29 08:49 5.97458 78.36855 31033 ft 479 kts 230°
2026-04-29 08:49 5.95378 78.34236 31307 ft 480 kts 230°
2026-04-29 08:49 5.93292 78.31609 31561 ft 482 kts 230°
2026-04-29 08:50 5.91220 78.29001 31795 ft 484 kts 230°
2026-04-29 08:50 5.86971 78.23656 31853 ft 496 kts 230°
2026-04-29 08:51 5.82651 78.18221 31851 ft 498 kts 230°
2026-04-29 08:51 5.78325 78.12778 31855 ft 497 kts 230°
2026-04-29 08:52 5.74015 78.07358 31855 ft 497 kts 230°
2026-04-29 08:52 5.69836 78.01830 31855 ft 498 kts 236°
2026-04-29 08:53 5.66825 77.95607 31856 ft 500 kts 249°
2026-04-29 08:53 5.64804 77.88937 31856 ft 500 kts 252°
2026-04-29 08:54 5.62777 77.82263 31852 ft 499 kts 252°
2026-04-29 08:54 5.60745 77.75597 31855 ft 499 kts 252°
2026-04-29 08:55 5.58709 77.68911 31852 ft 500 kts 252°
2026-04-29 08:55 5.56676 77.62236 31852 ft 500 kts 252°
2026-04-29 08:56 5.54641 77.55558 31853 ft 500 kts 252°
2026-04-29 08:56 5.52605 77.48877 31852 ft 500 kts 252°
2026-04-29 08:57 5.50567 77.42194 31851 ft 500 kts 252°
2026-04-29 08:57 5.48545 77.35565 31852 ft 500 kts 252°
2026-04-29 08:58 5.46502 77.28873 31854 ft 500 kts 252°
2026-04-29 08:58 5.44462 77.22191 31852 ft 501 kts 252°
2026-04-29 08:59 5.42419 77.15502 31849 ft 500 kts 252°
2026-04-29 08:59 5.40391 77.08866 31850 ft 501 kts 252°
2026-04-29 09:00 5.38346 77.02175 31852 ft 501 kts 252°
2026-04-29 09:00 5.36301 76.95489 31853 ft 501 kts 252°
2026-04-29 09:01 5.34255 76.88805 31853 ft 500 kts 252°
2026-04-29 09:01 5.32210 76.82126 31850 ft 500 kts 252°
2026-04-29 09:02 5.30166 76.75453 31842 ft 500 kts 252°
2026-04-29 09:02 5.28124 76.68787 31850 ft 500 kts 252°
2026-04-29 09:03 5.26092 76.62156 31855 ft 500 kts 252°
2026-04-29 09:03 5.24047 76.55486 31845 ft 500 kts 252°
2026-04-29 09:04 5.22002 76.48818 31848 ft 500 kts 252°
2026-04-29 09:04 5.19956 76.42152 31848 ft 500 kts 252°
2026-04-29 09:05 5.18252 76.36601 31851 ft 500 kts 252°
2026-04-29 09:05 5.16203 76.29930 31848 ft 500 kts 252°
2026-04-29 09:06 5.13815 76.22158 31847 ft 501 kts 252°
2026-04-29 09:06 5.11763 76.15479 31846 ft 501 kts 252°
2026-04-29 09:07 5.10042 76.09882 31848 ft 501 kts 252°
2026-04-29 09:07 5.08002 76.03232 31852 ft 501 kts 252°
2026-04-29 09:08 5.05948 75.96541 31850 ft 501 kts 252°
2026-04-29 09:08 5.03897 75.89866 31851 ft 501 kts 252°
2026-04-29 09:09 5.01842 75.83175 31853 ft 501 kts 252°
2026-04-29 09:09 4.99784 75.76482 31854 ft 501 kts 252°
2026-04-29 09:10 4.97731 75.69807 31855 ft 501 kts 252°
2026-04-29 09:10 4.95350 75.63306 31853 ft 499 kts 243°
2026-04-29 09:11 4.91942 75.57244 31849 ft 498 kts 238°
2026-04-29 09:11 4.88487 75.51216 31852 ft 498 kts 239°
2026-04-29 09:12 4.85036 75.45177 31851 ft 498 kts 239°
2026-04-29 09:12 4.81586 75.39147 31851 ft 498 kts 239°
2026-04-29 09:13 4.78152 75.33147 31852 ft 498 kts 239°
2026-04-29 09:13 4.74703 75.27122 31853 ft 498 kts 239°
2026-04-29 09:14 4.71242 75.21080 31853 ft 498 kts 239°
2026-04-29 09:14 4.67786 75.15046 31854 ft 498 kts 239°
2026-04-29 09:15 4.64338 75.09028 31853 ft 498 kts 239°
2026-04-29 09:15 4.60912 75.03047 31857 ft 498 kts 239°
2026-04-29 09:16 4.57460 74.97025 31856 ft 497 kts 239°
2026-04-29 09:16 4.55739 74.94023 31704 ft 496 kts 239°
2026-04-29 09:16 4.54019 74.91023 31460 ft 496 kts 239°
2026-04-29 09:16 4.52303 74.88030 31224 ft 494 kts 239°
2026-04-29 09:17 4.50595 74.85051 30883 ft 492 kts 239°
2026-04-29 09:17 4.48892 74.82083 30109 ft 494 kts 239°
2026-04-29 09:17 4.47177 74.79095 29411 ft 492 kts 239°
2026-04-29 09:17 4.45477 74.76130 28749 ft 487 kts 239°
2026-04-29 09:18 4.43800 74.73207 28098 ft 481 kts 239°
2026-04-29 09:18 4.42138 74.70311 27434 ft 476 kts 239°
2026-04-29 09:18 4.40517 74.67484 26774 ft 471 kts 239°
2026-04-29 09:18 4.38887 74.64646 26130 ft 467 kts 239°
2026-04-29 09:19 4.37273 74.61833 25466 ft 465 kts 239°
2026-04-29 09:19 4.35663 74.59030 24829 ft 461 kts 239°
2026-04-29 09:19 4.34073 74.56259 24199 ft 457 kts 239°
2026-04-29 09:19 4.32490 74.53502 23563 ft 454 kts 239°
2026-04-29 09:20 4.30921 74.50770 22923 ft 450 kts 239°
2026-04-29 09:20 4.29371 74.48071 22303 ft 444 kts 239°
2026-04-29 09:20 4.27843 74.45409 21684 ft 438 kts 239°
2026-04-29 09:20 4.26332 74.42779 21064 ft 433 kts 239°
2026-04-29 09:21 4.24836 74.40176 20413 ft 429 kts 239°
2026-04-29 09:21 4.23360 74.37606 19806 ft 423 kts 239°
2026-04-29 09:21 4.21902 74.35069 19213 ft 417 kts 239°
2026-04-29 09:21 4.20472 74.32581 18623 ft 413 kts 239°
2026-04-29 09:22 4.19046 74.30100 18004 ft 408 kts 239°
2026-04-29 09:22 4.17639 74.27651 17382 ft 402 kts 239°
2026-04-29 09:22 4.16258 74.25247 16802 ft 395 kts 239°
2026-04-29 09:22 4.14899 74.22883 16220 ft 388 kts 239°
2026-04-29 09:23 4.13560 74.20554 15599 ft 384 kts 239°
2026-04-29 09:23 4.12238 74.18255 15078 ft 377 kts 239°
2026-04-29 09:23 4.10938 74.15995 14493 ft 373 kts 239°
2026-04-29 09:23 4.09655 74.13763 13945 ft 367 kts 239°
2026-04-29 09:24 4.08388 74.11559 13352 ft 363 kts 239°
2026-04-29 09:24 4.07142 74.09393 12834 ft 355 kts 239°
2026-04-29 09:24 4.05917 74.07265 12309 ft 349 kts 239°
2026-04-29 09:24 4.04720 74.05183 11788 ft 343 kts 239°
2026-04-29 09:25 4.03493 74.03053 11340 ft 365 kts 239°
2026-04-29 09:25 4.02197 74.00802 10839 ft 378 kts 239°
2026-04-29 09:25 4.00893 73.98537 10607 ft 371 kts 239°
2026-04-29 09:25 3.99647 73.96368 10467 ft 355 kts 239°
2026-04-29 09:26 3.98448 73.94282 10302 ft 336 kts 239°
2026-04-29 09:26 3.97298 73.92281 10141 ft 318 kts 239°
2026-04-29 09:26 3.96225 73.90414 9875 ft 304 kts 239°
2026-04-29 09:26 3.95301 73.88564 9451 ft 297 kts 249°
2026-04-29 09:27 3.94877 73.86577 9067 ft 288 kts 265°
2026-04-29 09:27 3.94885 73.84603 8706 ft 278 kts 271°
2026-04-29 09:27 3.94916 73.82697 8358 ft 269 kts 270°
2026-04-29 09:27 3.94929 73.80858 8018 ft 263 kts 270°
2026-04-29 09:28 3.94931 73.78969 7907 ft 274 kts 270°
2026-04-29 09:28 3.94930 73.77080 7854 ft 267 kts 270°
2026-04-29 09:28 3.94928 73.75260 7769 ft 254 kts 270°
2026-04-29 09:28 3.94926 73.73540 7596 ft 242 kts 270°
2026-04-29 09:29 3.94924 73.71864 7253 ft 239 kts 270°
2026-04-29 09:29 3.94921 73.68549 6547 ft 235 kts 270°
2026-04-29 09:29 3.94920 73.66926 6118 ft 232 kts 270°
2026-04-29 09:30 3.94919 73.65315 5690 ft 230 kts 270°
2026-04-29 09:30 3.94919 73.63750 5496 ft 219 kts 270°
2026-04-29 09:30 3.94917 73.62287 5391 ft 207 kts 270°
2026-04-29 09:30 3.94914 73.60898 5224 ft 195 kts 270°
2026-04-29 09:31 3.94911 73.59546 4948 ft 191 kts 270°
2026-04-29 09:31 3.94908 73.58221 4634 ft 190 kts 270°
2026-04-29 09:31 3.94906 73.56896 4285 ft 190 kts 270°
2026-04-29 09:31 3.94906 73.55572 4048 ft 188 kts 270°
2026-04-29 09:32 3.95179 73.54327 3945 ft 186 kts 299°
2026-04-29 09:32 3.96153 73.53453 3890 ft 193 kts 335°
2026-04-29 09:32 3.97456 73.53152 3817 ft 194 kts 353°
2026-04-29 09:32 3.98804 73.53113 3633 ft 197 kts 359°
2026-04-29 09:33 4.00159 73.53132 3433 ft 192 kts 358°
2026-04-29 09:33 4.01491 73.53123 3205 ft 190 kts 358°
2026-04-29 09:33 4.02797 73.53125 2973 ft 186 kts 358°
2026-04-29 09:33 4.04089 73.53119 2739 ft 184 kts 358°
2026-04-29 09:34 4.05360 73.53119 2512 ft 182 kts 358°
2026-04-29 09:34 4.06618 73.53116 2280 ft 179 kts 358°
2026-04-29 09:34 4.07841 73.53115 2057 ft 171 kts 357°
2026-04-29 09:34 4.08992 73.53114 1834 ft 162 kts 357°
2026-04-29 09:35 4.10102 73.53113 1648 ft 153 kts 357°
2026-04-29 09:35 4.11143 73.53110 1445 ft 153 kts 356°
2026-04-29 09:35 4.12209 73.53110 1245 ft 150 kts 356°
2026-04-29 09:35 4.13242 73.53107 1049 ft 150 kts 358°
2026-04-29 09:36 4.14292 73.53108 889 ft 155 kts 356°
2026-04-29 09:36 4.15353 73.53112 591 ft 148 kts 358°
2026-04-29 09:36 4.16378 73.53108 442 ft 153 kts 356°
2026-04-29 09:36 4.17448 73.53096 264 ft 153 kts 354°
2026-04-29 09:37 4.18505 73.53105 66 ft 152 kts 358°
2026-04-29 09:37 4.19487 73.53094 26 ft 120 kts
2026-04-29 09:37 4.20122 73.53099 20 ft 62 kts 360°
2026-04-29 09:37 4.20323 73.53096 25 ft 6 kts 353°
2026-04-29 09:38 4.20360 73.53074 24 ft 6 kts 315°
2026-04-29 09:38 4.20367 73.53031 24 ft 7 kts 270°
2026-04-29 09:38 4.20367 73.52975 26 ft 9 kts 270°
2026-04-29 09:38 4.20351 73.52910 25 ft 10 kts 239°
2026-04-29 09:39 4.20287 73.52896 23 ft 10 kts 178°
2026-04-29 09:39 4.20211 73.52898 22 ft 12 kts 179°
2026-04-29 09:39 4.20122 73.52898 24 ft 13 kts 180°
2026-04-29 09:39 4.20024 73.52901 25 ft 15 kts 178°
2026-04-29 09:40 4.19916 73.52903 22 ft 16 kts 179°
2026-04-29 09:40 4.19800 73.52905 22 ft 17 kts 179°
2026-04-29 09:40 4.19678 73.52907 23 ft 18 kts 179°
2026-04-29 09:40 4.19549 73.52909 22 ft 19 kts 179°
2026-04-29 09:41 4.19414 73.52912 22 ft 20 kts 179°
2026-04-29 09:41 4.19275 73.52914 23 ft 20 kts 179°
2026-04-29 09:41 4.19154 73.52915 24 ft 13 kts 179°
2026-04-29 09:41 4.19086 73.52916 26 ft 9 kts 181°
2026-04-29 09:42 4.19054 73.52870 23 ft 8 kts 255°
2026-04-29 09:42 4.19013 73.52854 24 ft 7 kts 185°
2026-04-29 09:42 4.18960 73.52852 22 ft 9 kts 181°
2026-04-29 09:42 4.18894 73.52852 22 ft 10 kts 180°
2026-04-29 09:43 4.18817 73.52852 22 ft 12 kts 180°
2026-04-29 09:43 4.18729 73.52853 26 ft 13 kts 179°
2026-04-29 09:43 4.18630 73.52854 22 ft 15 kts 179°
2026-04-29 09:43 4.18564 73.52855 22 ft 0 kts 179°
2026-04-29 09:44 4.18546 73.52848 28 ft 3 kts 213°
2026-04-29 09:44 4.18539 73.52826 23 ft 4 kts 252°
2026-04-29 09:44 4.18534 73.52792 22 ft 6 kts 264°
2026-04-29 09:44 4.18534 73.52781 22 ft 2 kts 270°
2026-04-29 09:45 4.18535 73.52771 22 ft 1 kts 271°
2026-04-29 09:45 4.18535 73.52766 22 ft 1 kts 271°
2026-04-29 09:45 4.18535 73.52765 22 ft 0 kts 271°
2026-04-29 09:45 4.18535 73.52764 22 ft 0 kts 271°